When you browse on this site, cookies collect data to enhance your experience and personalize the content and advertising you see.
Visit our Privacy Policy to learn more. By continuing to use the site, you agree to this use of cookies and data.
  • In Latvia
  • List of Countries
  • For 7 days
  • Water Temperature
  • Weather Map
  • Weather Widgets
  • user-avatar
    Login

    Hourly Weather Eisenstadt

    Today, 20 November, Wednesday

    Time Temperature Precipitation Wind Pressure Humidity
    00:00 +7°C° 0 mm 1 mps 722 mmHg 88%
    01:00 +7°C° 0 mm 1 mps 722 mmHg 88%
    02:00 +7°C° 0 mm 1 mps 722 mmHg 88%
    03:00 +6°C° 0 mm 1 mps 722 mmHg 88%
    04:00 +5°C° 0 mm 0 mps 721 mmHg 88%
    05:00 +6°C° 0 mm 1 mps 721 mmHg 89%
    06:00 +6°C° 0 mm 1 mps 721 mmHg 90%
    07:00 +6°C° 0 mm 1 mps 721 mmHg 91%
    08:00 +7°C° 0 mm 1 mps 721 mmHg 90%
    09:00 +8°C° 0 mm 1 mps 721 mmHg 89%
    10:00 +8°C° 0 mm 1 mps 721 mmHg 88%
    11:00 +7°C° 0.4 mm 2 mps 721 mmHg 91%
    12:00 +7°C° 0.4 mm 2 mps 720 mmHg 94%
    13:00 +7°C° 0.4 mm 2 mps 720 mmHg 96%
    14:00 +7°C° 1.2 mm 2 mps 720 mmHg 96%
    15:00 +7°C° 1.2 mm 3 mps 719 mmHg 96%
    16:00 +7°C° 1.2 mm 3 mps 719 mmHg 96%
    17:00 +7°C° 1.4 mm 3 mps 719 mmHg 97%
    18:00 +7°C° 1.4 mm 3 mps 719 mmHg 97%
    19:00 +7°C° 1.4 mm 2 mps 719 mmHg 97%
    20:00 +7°C° 0.4 mm 2 mps 719 mmHg 97%
    21:00 +7°C° 0.4 mm 2 mps 718 mmHg 97%
    22:00 +8°C° 0.4 mm 1 mps 718 mmHg 98%
    23:00 +8°C° 0.1 mm 1 mps 718 mmHg 98%

    Tomorrow, 21 November, Thursday

    Time Temperature Precipitation Wind Pressure Humidity
    00:00 +8°C° 0.1 mm 1 mps 718 mmHg 98%
    01:00 +8°C° 0.1 mm 1 mps 718 mmHg 98%
    02:00 +8°C° 0.1 mm 1 mps 718 mmHg 98%
    03:00 +8°C° 0.1 mm 1 mps 718 mmHg 98%
    04:00 +8°C° 0.1 mm 1 mps 718 mmHg 98%
    05:00 +8°C° 0 mm 1 mps 718 mmHg 98%
    06:00 +8°C° 0 mm 1 mps 718 mmHg 98%
    07:00 +8°C° 0 mm 1 mps 718 mmHg 98%
    08:00 +8°C° 0 mm 1 mps 718 mmHg 97%
    09:00 +9°C° 0 mm 1 mps 718 mmHg 95%
    10:00 +9°C° 0 mm 1 mps 718 mmHg 93%
    11:00 +8°C° 0 mm 2 mps 718 mmHg 92%
    12:00 +9°C° 0 mm 2 mps 718 mmHg 90%
    13:00 +9°C° 0 mm 3 mps 718 mmHg 88%
    14:00 +9°C° 0 mm 3 mps 718 mmHg 89%
    15:00 +9°C° 0 mm 3 mps 718 mmHg 89%
    16:00 +8°C° 0 mm 3 mps 718 mmHg 90%
    17:00 +8°C° 0 mm 3 mps 718 mmHg 91%
    18:00 +8°C° 0 mm 3 mps 718 mmHg 92%
    19:00 +8°C° 0 mm 3 mps 719 mmHg 93%
    20:00 +8°C° 0 mm 3 mps 719 mmHg 93%
    21:00 +7°C° 0 mm 3 mps 719 mmHg 92%
    22:00 +7°C° 0 mm 3 mps 719 mmHg 92%
    23:00 +7°C° 0 mm 3 mps 719 mmHg 92%

    Day after tomorrow, 22 November, Friday

    Time Temperature Precipitation Wind Pressure Humidity
    00:00 +7°C° 0 mm 3 mps 719 mmHg 91%
    01:00 +5°C° 0 mm 3 mps 719 mmHg 91%
    02:00 +5°C° 0 mm 3 mps 719 mmHg 91%
    03:00 +5°C° 0 mm 3 mps 719 mmHg 91%
    04:00 +5°C° 0 mm 3 mps 719 mmHg 91%
    05:00 +5°C° 0 mm 3 mps 719 mmHg 92%
    06:00 +4°C° 0 mm 3 mps 719 mmHg 92%
    07:00 +5°C° 0 mm 2 mps 719 mmHg 93%
    08:00 +5°C° 0 mm 3 mps 720 mmHg 90%
    09:00 +7°C° 0 mm 3 mps 720 mmHg 86%
    10:00 +8°C° 0 mm 3 mps 720 mmHg 83%
    11:00 +9°C° 0 mm 3 mps 720 mmHg 81%
    12:00 +8°C° 0 mm 4 mps 720 mmHg 79%
    13:00 +10°C° 0 mm 4 mps 720 mmHg 76%
    14:00 +10°C° 0 mm 4 mps 719 mmHg 80%
    15:00 +8°C° 0 mm 4 mps 719 mmHg 84%
    16:00 +7°C° 0 mm 4 mps 719 mmHg 88%
    17:00 +7°C° 0 mm 4 mps 719 mmHg 89%
    18:00 +7°C° 0 mm 4 mps 719 mmHg 91%
    19:00 +6°C° 0 mm 4 mps 719 mmHg 92%
    20:00 +6°C° 0 mm 4 mps 719 mmHg 92%
    21:00 +6°C° 0 mm 4 mps 719 mmHg 93%
    22:00 +6°C° 0 mm 4 mps 719 mmHg 93%
    23:00 +6°C° 0 mm 4 mps 719 mmHg 93%

    23 November, Saturday

    Time Temperature Precipitation Wind Pressure Humidity
    00:00 +6°C° 0 mm 4 mps 719 mmHg 93%
    01:00 +6°C° 0 mm 4 mps 719 mmHg 93%
    02:00 +6°C° 0 mm 4 mps 719 mmHg 93%
    03:00 +5°C° 0 mm 4 mps 718 mmHg 93%
    04:00 +5°C° 0 mm 4 mps 718 mmHg 93%
    05:00 +5°C° 0 mm 4 mps 718 mmHg 93%
    06:00 +5°C° 0 mm 4 mps 718 mmHg 93%
    07:00 +5°C° 0 mm 5 mps 718 mmHg 93%
    08:00 +6°C° 0 mm 5 mps 718 mmHg 91%
    09:00 +5°C° 0 mm 6 mps 718 mmHg 88%
    10:00 +7°C° 0 mm 6 mps 718 mmHg 86%
    11:00 +8°C° 0 mm 6 mps 718 mmHg 84%
    12:00 +9°C° 0 mm 7 mps 717 mmHg 82%
    13:00 +9°C° 0 mm 7 mps 717 mmHg 80%
    14:00 +9°C° 0 mm 7 mps 717 mmHg 81%
    15:00 +9°C° 0 mm 7 mps 717 mmHg 82%
    16:00 +9°C° 0 mm 6 mps 717 mmHg 84%
    17:00 +8°C° 0 mm 6 mps 717 mmHg 85%
    18:00 +8°C° 0 mm 6 mps 717 mmHg 87%
    19:00 +8°C° 0 mm 6 mps 717 mmHg 88%
    20:00 +7°C° 0 mm 6 mps 717 mmHg 88%
    21:00 +7°C° 0 mm 5 mps 717 mmHg 88%
    22:00 +7°C° 0 mm 5 mps 717 mmHg 89%
    23:00 +7°C° 0 mm 5 mps 717 mmHg 89%

    24 November, Sunday

    Time Temperature Precipitation Wind Pressure Humidity
    00:00 +7°C° 0 mm 5 mps 717 mmHg 90%
    01:00 +7°C° 0 mm 4 mps 717 mmHg 90%
    02:00 +6°C° 0 mm 4 mps 717 mmHg 91%
    03:00 +6°C° 0 mm 4 mps 717 mmHg 91%
    04:00 +6°C° 0 mm 4 mps 717 mmHg 92%
    05:00 +6°C° 0 mm 4 mps 717 mmHg 92%
    06:00 +7°C° 0 mm 3 mps 717 mmHg 93%
    07:00 +7°C° 0 mm 3 mps 718 mmHg 93%
    08:00 +7°C° 0 mm 3 mps 718 mmHg 91%
    09:00 +8°C° 0 mm 3 mps 718 mmHg 88%
    10:00 +9°C° 0 mm 3 mps 719 mmHg 86%
    11:00 +9°C° 0 mm 3 mps 718 mmHg 84%
    12:00 +10°C° 0 mm 3 mps 718 mmHg 82%
    13:00 +10°C° 0 mm 3 mps 718 mmHg 80%
    14:00 +10°C° 0 mm 3 mps 718 mmHg 83%
    15:00 +9°C° 0 mm 3 mps 718 mmHg 86%
    16:00 +8°C° 0 mm 3 mps 718 mmHg 89%
    17:00 +8°C° 0 mm 2 mps 718 mmHg 90%
    18:00 +7°C° 0 mm 2 mps 718 mmHg 91%
    19:00 +8°C° 0 mm 1 mps 718 mmHg 93%
    20:00 +8°C° 0 mm 1 mps 719 mmHg 93%
    21:00 +7°C° 0 mm 1 mps 719 mmHg 93%
    22:00 +7°C° 0 mm 1 mps 719 mmHg 93%
    23:00 +7°C° 0 mm 1 mps 719 mmHg 93%

    25 November, Monday

    Time Temperature Precipitation Wind Pressure Humidity
    00:00 +7°C° 0 mm 1 mps 719 mmHg 93%
    01:00 +5°C° 0 mm 0 mps 719 mmHg 93%
    02:00 +5°C° 0 mm 0 mps 719 mmHg 93%
    03:00 +5°C° 0 mm 0 mps 719 mmHg 93%
    04:00 +5°C° 0 mm 0 mps 719 mmHg 93%
    05:00 +4°C° 0 mm 0 mps 719 mmHg 94%
    06:00 +4°C° 0 mm 0 mps 719 mmHg 94%
    07:00 +4°C° 0 mm 0 mps 719 mmHg 95%
    08:00 +5°C° 0 mm 0 mps 719 mmHg 92%
    09:00 +6°C° 0 mm 0 mps 720 mmHg 89%
    10:00 +7°C° 0 mm 0 mps 720 mmHg 86%
    11:00 +9°C° 0 mm 1 mps 720 mmHg 84%
    12:00 +10°C° 0 mm 1 mps 719 mmHg 81%
    13:00 +10°C° 0 mm 1 mps 719 mmHg 79%
    14:00 +9°C° 0 mm 1 mps 719 mmHg 84%
    15:00 +9°C° 0 mm 1 mps 718 mmHg 89%
    16:00 +8°C° 0 mm 1 mps 718 mmHg 93%
    17:00 +8°C° 0 mm 1 mps 718 mmHg 93%
    18:00 +6°C° 0 mm 2 mps 719 mmHg 94%
    19:00 +6°C° 0 mm 2 mps 719 mmHg 94%
    20:00 +6°C° 0 mm 2 mps 719 mmHg 93%
    21:00 +6°C° 0 mm 2 mps 719 mmHg 93%
    22:00 +6°C° 0 mm 2 mps 719 mmHg 93%
    23:00 +6°C° 0 mm 2 mps 719 mmHg 93%
    Show more